TERRA (25994 NORAD) Tracking and Keplerian Element Data

This shows tracking and keplerian element data for the satellite.

Feedback or suggestion? Click here.




ElementValue
Catalog25994
NameTERRA
Epoch Orbit33702
Epoch Day35.19570403
Epoch Year2025
RAAN97.5806
Inclination98.018
Eccentricity0.0002512
Argument of Perigee28.853
Mean Anonmoly35.6497
Mean Motion14.60444138
Decay Rate1.012E-05
L11 25994U 99068A 25035.19570403 .00001012 00000+0 21806-3 0 9998
L22 25994 98.0180 97.5806 0002512 28.8530 35.6497 14.60444138337022



Live tracking and technical data element details for TERRA (NORAD 25994). TERRA can be tracked NOW for your location showing map with azimuth and elevation plus other details from your city location.







IsCatalogInMostPopularTable: catalog: 25994, numindb: 546
Update: records affected: 1



GetName: 25994 TERRA

Hit Count: updated at: Sat, 17 May 2025 08:50:21 GMT